Location: Ripley
(48.3812°N, 115.4473°W)
Time: 00:16:47
(UTC+00:00)

EO-79 - Pass Details

Date: 05 July 2022
Orbit: 588 x 603 km, 98.0° (Epoch: 15 August)

Event Time Altitude Azimuth Distance (km) Brightness Sun altitude
Rises 08:04:36 0° 33° (NNE) 2,860 ? -18.7°
Reaches altitude 10° 08:08:15 10° 66° (ENE) 1,953 ? -18.7°
Maximum altitude 08:09:46 12° 88° (E) 1,842 ? -18.7°
Drops below altitude 10° 08:11:17 10° 109° (ESE) 1,950 ? -18.6°
Enters shadow 08:11:57 - 117° (ESE) 2,059 ? -18.6°
